EW4883 Weather Reports


Display with metric or nautical units.
time (UTC)temp
F
wind
direction
speed
MPH
gust
MPH
rain 1hr
in
rain 24hr
in
rain mn
in
humidity
%
barometer
mb
20260902235051 91 207 2.0 9.0 0.00 0.00 0.00 41 1014.4
20260902234609 91 206 4.0 8.0 0.00 0.00 0.00 41 1014.3
20260902234056 92 115 0.0 8.0 0.00 0.00 0.00 39 1014.4
20260902233553 92 231 1.0 9.0 0.00 0.00 0.00 40 1014.3
20260902233054 92 236 2.0 9.0 0.00 0.00 0.00 39 1014.3
20260902232551 91 246 3.0 8.0 0.00 0.00 0.00 38 1014.3
20260902232054 91 263 2.0 9.0 0.00 0.00 0.00 37 1014.3
20260902231600 91 224 4.0 9.0 0.00 0.00 0.00 39 1014.4
20260902231052 91 237 4.0 8.0 0.00 0.00 0.00 39 1014.4
20260902230551 91 231 3.0 8.0 0.00 0.00 0.00 40 1014.4
20260902230104 90 223 3.0 5.0 0.00 0.00 0.00 40 1014.5
20260902225551 90 236 2.0 8.0 0.00 0.00 0.00 40 1014.6
20260902225054 90 235 2.0 10.0 0.00 0.00 0.00 40 1014.7
20260902224618 90 227 5.0 10.0 0.00 0.00 0.00 40 1014.9
20260902224051 91 257 4.0 10.0 0.00 0.00 0.00 40 1014.9
20260902223551 91 252 3.0 9.0 0.00 0.00 0.00 40 1014.9
20260902223056 91 251 3.0 9.0 0.00 0.00 0.00 40 1014.9
20260902222551 91 296 2.0 9.0 0.00 0.00 0.00 39 1014.9
20260902222051 91 252 2.0 10.0 0.00 0.00 0.00 40 1014.8
20260902221605 91 296 3.0 10.0 0.00 0.00 0.00 40 1015.0
20260902221051 91 298 4.0 11.0 0.00 0.00 0.00 40 1015.0
20260902220552 91 296 2.0 11.0 0.00 0.00 0.00 42 1014.9
20260902220116 91 249 0.0 7.0 0.00 0.00 0.00 41 1015.1
20260902215549 91 342 2.0 8.0 0.00 0.00 0.00 41 1015.2
20260902215050 91 275 3.0 9.0 0.00 0.00 0.00 40 1015.2
20260902214604 92 269 3.0 9.0 0.00 0.00 0.00 39 1015.4
20260902214051 92 270 4.0 9.0 0.00 0.00 0.00 38 1015.4
20260902213552 92 0 1.0 10.0 0.00 0.00 0.00 39 1015.4
20260902213104 92 248 5.0 10.0 0.00 0.00 0.00 38 1015.3
20260902212549 93 351 3.0 8.0 0.00 0.00 0.00 39 1015.2
20260902212050 93 30 1.0 9.0 0.00 0.00 0.00 39 1015.3
20260902211605 94 347 3.0 12.0 0.00 0.00 0.00 36 1015.4
20260902211055 93 285 2.0 12.0 0.00 0.00 0.00 37 1015.6
20260902210550 93 313 5.0 12.0 0.00 0.00 0.00 38 1015.7
20260902210108 93 317 2.0 11.0 0.00 0.00 0.00 39 1015.7
20260902205552 93 265 3.0 11.0 0.00 0.00 0.00 40 1015.8
20260902205049 92 305 4.0 11.0 0.00 0.00 0.00 40 1015.9
20260902204603 92 298 6.0 11.0 0.00 0.00 0.00 43 1015.9
20260902204050 91 276 2.0 12.0 0.00 0.00 0.00 43 1015.8
20260902203549 91 263 6.0 12.0 0.00 0.00 0.00 42 1016.0
20260902203110 91 0 4.0 12.0 0.00 0.00 0.00 43 1016.0
20260902202549 91 50 3.0 11.0 0.00 0.00 0.00 42 1016.0
20260902202049 91 296 5.0 12.0 0.00 0.00 0.00 42 1016.0
20260902201605 92 244 6.0 12.0 0.00 0.00 0.00 42 1016.0
20260902201049 91 303 3.0 12.0 0.00 0.00 0.00 44 1016.1
20260902200552 90 302 3.0 13.0 0.00 0.00 0.00 45 1016.2
20260902200105 90 263 5.0 13.0 0.00 0.00 0.00 47 1016.4
20260902195550 90 247 6.0 13.0 0.00 0.00 0.00 45 1016.4
20260902195049 90 242 4.0 11.0 0.00 0.00 0.00 45 1016.4
20260902194604 91 280 5.0 11.0 0.00 0.00 0.00 45 1016.5
20260902194053 91 275 4.0 9.0 0.00 0.00 0.00 44 1016.6
20260902193554 91 329 4.0 10.0 0.00 0.00 0.00 46 1016.8
20260902193108 91 298 3.0 10.0 0.00 0.00 0.00 46 1016.8
20260902192555 91 253 4.0 10.0 0.00 0.00 0.00 46 1016.9
20260902192053 90 338 3.0 8.0 0.00 0.00 0.00 47 1017.1
20260902191606 89 290 3.0 10.0 0.00 0.00 0.00 48 1017.2
20260902191052 90 273 0.0 10.0 0.00 0.00 0.00 47 1017.3
20260902190552 90 300 5.0 10.0 0.00 0.00 0.00 46 1017.3
20260902190111 91 234 5.0 10.0 0.00 0.00 0.00 46 1017.2
20260902185555 91 236 3.0 9.0 0.00 0.00 0.00 46 1017.3
20260902185054 91 273 2.0 8.0 0.00 0.00 0.00 45 1017.4
20260902184600 90 316 3.0 8.0 0.00 0.00 0.00 48 1017.6
20260902184053 90 5 1.0 11.0 0.00 0.00 0.00 47 1017.6
20260902183553 90 26 3.0 11.0 0.00 0.00 0.00 47 1017.7
20260902183111 90 360 2.0 11.0 0.00 0.00 0.00 46 1017.8
20260902182552 90 270 2.0 10.0 0.00 0.00 0.00 47 1017.8
20260902182053 90 142 1.0 10.0 0.00 0.00 0.00 47 1017.8
20260902181606 90 271 4.0 11.0 0.00 0.00 0.00 48 1017.9
20260902181053 90 325 2.0 11.0 0.00 0.00 0.00 47 1018.0
20260902180552 90 5 0.0 6.0 0.00 0.00 0.00 48 1018.0
20260902175553 89 69 2.0 8.0 0.00 0.00 0.00 49 1018.1
20260902175053 89 0 2.0 8.0 0.00 0.00 0.00 48 1018.1
20260902174604 89 5 1.0 6.0 0.00 0.00 0.00 49 1018.1
20260902174053 89 36 0.0 6.0 0.00 0.00 0.00 49 1018.1
20260902173554 89 333 2.0 7.0 0.00 0.00 0.00 49 1018.2
20260902173107 89 0 0.0 7.0 0.00 0.00 0.00 49 1018.1
20260902172552 89 317 2.0 6.0 0.00 0.00 0.00 49 1018.2
20260902172052 89 351 0.0 5.0 0.00 0.00 0.00 50 1018.2
20260902171606 88 282 2.0 6.0 0.00 0.00 0.00 50 1018.3
20260902171057 88 255 2.0 6.0 0.00 0.00 0.00 51 1018.3
20260902170553 88 105 1.0 4.0 0.00 0.00 0.00 51 1018.1
20260902170104 87 0 2.0 6.0 0.00 0.00 0.00 50 1018.1
20260902165553 87 99 0.0 6.0 0.00 0.00 0.00 53 1018.1
20260902165053 87 101 2.0 6.0 0.00 0.00 0.00 52 1018.2
20260902164612 87 116 2.0 6.0 0.00 0.00 0.00 53 1018.2
20260902164118 86 116 2.0 6.0 0.00 0.00 0.00 54 1018.3
20260902163554 86 84 3.0 6.0 0.00 0.00 0.00 54 1018.3
20260902163104 85 68 2.0 5.0 0.00 0.00 0.00 55 1018.3
20260902162553 85 69 2.0 6.0 0.00 0.00 0.00 56 1018.3
20260902162056 85 69 2.0 6.0 0.00 0.00 0.00 57 1018.3
20260902161605 85 68 3.0 6.0 0.00 0.00 0.00 59 1018.3
20260902161052 84 64 3.0 6.0 0.00 0.00 0.00 59 1018.3
20260902160554 84 57 2.0 5.0 0.00 0.00 0.00 59 1018.2
20260902160124 84 57 1.0 6.0 0.00 0.00 0.00 61 1018.2
20260902155553 83 57 2.0 6.0 0.00 0.00 0.00 61 1018.1
20260902155054 83 52 3.0 6.0 0.00 0.00 0.00 62 1018.1
20260902154604 83 55 3.0 7.0 0.00 0.00 0.00 62 1018.2
20260902154053 82 103 3.0 7.0 0.00 0.00 0.00 63 1018.2
20260902153556 82 65 2.0 5.0 0.00 0.00 0.00 64 1018.1
20260902153100 82 57 3.0 5.0 0.00 0.00 0.00 64 1018.2
20260902152553 81 57 3.0 6.0 0.00 0.00 0.00 64 1018.2
20260902152053 81 62 3.0 6.0 0.00 0.00 0.00 64 1018.2
20260902151611 81 60 3.0 6.0 0.00 0.00 0.00 64 1018.2
20260902151053 82 47 3.0 6.0 0.00 0.00 0.00 65 1018.2
20260902150554 82 80 2.0 4.0 0.00 0.00 0.00 64 1018.1
20260902150100 82 80 2.0 4.0 0.00 0.00 0.00 64 1018.1
20260902145552 82 84 2.0 4.0 0.00 0.00 0.00 64 1018.0
20260902145052 83 0 1.0 4.0 0.00 0.00 0.00 62 1018.0
20260902144559 82 128 1.0 3.0 0.00 0.00 0.00 62 1018.1
20260902144054 82 0 0.0 0.0 0.00 0.00 0.00 64 1018.1
20260902143554 81 0 0.0 1.0 0.00 0.00 0.00 66 1018.1
20260902143109 80 0 0.0 3.0 0.00 0.00 0.00 67 1018.1
20260902142555 80 0 0.0 3.0 0.00 0.00 0.00 69 1018.2
20260902142057 79 0 0.0 3.0 0.00 0.00 0.00 70 1018.1
20260902141601 79 0 0.0 3.0 0.00 0.00 0.00 73 1018.1
20260902141056 78 128 0.0 4.0 0.00 0.00 0.00 74 1018.0
20260902140553 77 0 1.0 4.0 0.00 0.00 0.00 75 1017.9
20260902140059 77 159 1.0 4.0 0.00 0.00 0.00 76 1017.8
20260902135555 76 0 0.0 1.0 0.00 0.00 0.00 77 1017.8
20260902135054 76 0 0.0 0.0 0.00 0.00 0.00 80 1017.8
20260902134611 76 0 0.0 4.0 0.00 0.00 0.00 81 1017.7
20260902134053 75 0 0.0 4.0 0.00 0.00 0.00 81 1017.6
20260902133552 75 161 0.0 2.0 0.00 0.00 0.00 81 1017.6
20260902133109 74 0 0.0 2.0 0.00 0.00 0.00 81 1017.4
20260902132553 74 0 0.0 4.0 0.00 0.00 0.00 81 1017.5
20260902132053 73 0 0.0 4.0 0.00 0.00 0.00 82 1017.6
20260902131607 73 113 1.0 4.0 0.00 0.00 0.00 83 1017.5
20260902131055 73 0 0.0 0.0 0.00 0.00 0.00 84 1017.4
20260902130550 73 0 0.0 0.0 0.00 0.00 0.00 84 1017.3
20260902130104 73 0 0.0 0.0 0.00 0.00 0.00 84 1017.3
20260902125557 73 0 0.0 0.0 0.00 0.00 0.00 84 1017.2
20260902125055 73 0 0.0 0.0 0.00 0.00 0.00 83 1017.3
20260902124606 74 0 0.0 0.0 0.00 0.00 0.00 83 1017.1
20260902124054 74 0 0.0 0.0 0.00 0.00 0.00 82 1017.1
20260902123552 74 0 0.0 0.0 0.00 0.00 0.00 82 1017.0
20260902123103 74 0 0.0 0.0 0.00 0.00 0.00 81 1017.1
20260902122554 75 0 0.0 0.0 0.00 0.00 0.00 81 1017.1
20260902122053 75 0 0.0 0.0 0.00 0.00 0.00 80 1017.1
20260902121602 75 0 0.0 0.0 0.00 0.00 0.00 79 1016.9
20260902121053 75 0 0.0 0.0 0.00 0.00 0.00 79 1017.0
20260902120553 75 0 0.0 0.0 0.00 0.00 0.00 79 1017.0
20260902120107 75 0 0.0 0.0 0.00 0.00 0.00 79 1017.0
20260902115552 75 0 0.0 0.0 0.00 0.00 0.00 79 1016.9
20260902115053 75 0 0.0 0.0 0.00 0.00 0.00 79 1016.9
20260902114604 75 0 0.0 0.0 0.00 0.00 0.00 78 1017.0
20260902114052 76 0 0.0 0.0 0.00 0.00 0.00 77 1016.9
20260902113554 76 0 0.0 0.0 0.00 0.00 0.00 75 1016.8
20260902113103 76 0 0.0 2.0 0.00 0.00 0.00 75 1016.8
20260902112553 76 0 0.0 2.0 0.00 0.00 0.00 75 1016.9
20260902112057 76 0 0.0 4.0 0.00 0.00 0.00 75 1016.9
20260902111557 76 0 0.0 5.0 0.00 0.00 0.00 75 1016.8
20260902111053 76 168 0.0 5.0 0.00 0.00 0.00 75 1016.9
20260902110553 76 0 0.0 0.0 0.00 0.00 0.00 76 1016.8
20260902110106 76 0 0.0 0.0 0.00 0.00 0.00 76 1016.8
20260902105555 76 0 0.0 0.0 0.00 0.00 0.00 77 1016.9
20260902105054 76 0 0.0 0.0 0.00 0.00 0.00 77 1016.9
20260902104623 75 0 0.0 0.0 0.00 0.00 0.00 77 1016.9
20260902104053 75 0 0.0 0.0 0.00 0.00 0.00 77 1016.9
20260902103553 76 0 0.0 0.0 0.00 0.00 0.00 77 1016.9
20260902103100 76 0 0.0 0.0 0.00 0.00 0.00 76 1016.9
20260902102553 76 0 0.0 0.0 0.00 0.00 0.00 76 1017.0
20260902102154 75 0 0.0 0.0 0.00 0.00 0.00 77 1017.1
20260902101555 75 0 0.0 0.0 0.00 0.00 0.00 77 1017.2
20260902101049 75 0 0.0 0.0 0.00 0.00 0.00 76 1017.1
20260902100556 75 0 0.0 0.0 0.00 0.00 0.00 76 1017.1
20260902100130 76 0 0.0 0.0 0.00 0.00 0.00 75 1017.0
20260902095556 76 0 0.0 0.0 0.00 0.00 0.00 76 1016.9
20260902095220 76 0 0.0 0.0 0.00 0.00 0.00 75 1016.9
20260902094607 76 0 0.0 0.0 0.00 0.00 0.00 74 1016.9
20260902094053 76 0 0.0 0.0 0.00 0.00 0.00 73 1016.9
20260902093554 77 0 0.0 0.0 0.00 0.00 0.00 72 1017.0
20260902093117 77 0 0.0 0.0 0.00 0.00 0.00 72 1017.0
20260902092551 77 0 0.0 0.0 0.00 0.00 0.00 72 1016.9
20260902092053 78 0 0.0 0.0 0.00 0.00 0.00 70 1016.9
20260902091612 78 0 0.0 0.0 0.00 0.00 0.00 68 1016.9
20260902091053 78 0 0.0 3.0 0.00 0.00 0.00 68 1017.0
20260902090553 79 0 0.0 3.0 0.00 0.00 0.00 66 1016.9
20260902090106 80 0 0.0 3.0 0.00 0.00 0.00 65 1016.7
20260902085557 81 264 0.0 7.0 0.00 0.00 0.00 63 1016.8
20260902085053 81 264 3.0 7.0 0.00 0.00 0.00 62 1016.8
20260902084607 80 270 2.0 6.0 0.00 0.00 0.00 63 1016.8
20260902084053 80 285 1.0 6.0 0.00 0.00 0.00 63 1016.7
20260902083552 80 289 3.0 6.0 0.00 0.00 0.00 62 1016.8
20260902083111 80 231 1.0 4.0 0.00 0.00 0.00 62 1016.7
20260902082553 81 231 1.0 4.0 0.00 0.00 0.00 62 1016.7
20260902082052 81 231 1.0 7.0 0.00 0.00 0.00 61 1016.7
20260902081620 80 230 1.0 7.0 0.00 0.00 0.00 62 1016.7
20260902081052 80 0 2.0 7.0 0.00 0.00 0.00 63 1016.7
20260902080554 78 230 3.0 6.0 0.00 0.00 0.00 66 1016.7
20260902080108 77 282 1.0 4.0 0.00 0.00 0.00 69 1016.7
20260902075552 76 282 2.0 4.0 0.00 0.00 0.00 71 1016.7
20260902075052 76 282 1.0 3.0 0.00 0.00 0.00 73 1016.6
20260902074559 76 282 1.0 3.0 0.00 0.00 0.00 73 1016.7
20260902074053 76 282 1.0 3.0 0.00 0.00 0.00 74 1016.6
20260902073552 76 0 0.0 0.0 0.00 0.00 0.00 74 1016.5
20260902073057 76 0 0.0 0.0 0.00 0.00 0.00 73 1016.6
20260902072551 76 0 0.0 0.0 0.00 0.00 0.00 72 1016.6
20260902072055 77 0 0.0 0.0 0.00 0.00 0.00 72 1016.6
20260902071617 77 0 0.0 0.0 0.00 0.00 0.00 73 1016.6
20260902071055 77 0 0.0 0.0 0.00 0.00 0.00 72 1016.6
20260902070552 77 0 0.0 0.0 0.00 0.00 0.00 70 1016.5
20260902070106 77 0 0.0 0.0 0.00 0.00 0.00 70 1016.6
20260902065552 77 0 0.0 0.0 0.00 0.00 0.00 70 1016.6
20260902065052 78 0 0.0 0.0 0.00 0.00 0.00 71 1016.6
20260902064611 78 0 0.0 0.0 0.00 0.00 0.00 70 1016.6
20260902064052 78 0 0.0 0.0 0.00 0.00 0.00 68 1016.5
20260902063552 78 0 0.0 0.0 0.00 0.00 0.00 69 1016.5
20260902063133 78 0 0.0 0.0 0.00 0.00 0.00 69 1016.4
20260902062553 78 0 0.0 0.0 0.00 0.00 0.00 69 1016.4
20260902062052 78 0 0.0 0.0 0.00 0.00 0.00 70 1016.4
20260902061052 78 0 0.0 0.0 0.00 0.00 0.00 69 1016.4
20260902060553 78 0 0.0 0.0 0.00 0.00 0.00 70 1016.5
20260902060135 78 0 0.0 0.0 0.00 0.00 0.00 69 1016.5
20260902055553 78 0 0.0 0.0 0.00 0.00 0.00 69 1016.6
20260902055053 79 0 0.0 0.0 0.00 0.00 0.00 68 1016.6
20260902054601 79 0 0.0 0.0 0.00 0.00 0.00 68 1016.6
20260902054055 79 0 0.0 0.0 0.00 0.00 0.00 67 1016.5
20260902053555 79 0 0.0 0.0 0.00 0.00 0.00 66 1016.4
20260902053058 79 0 0.0 0.0 0.00 0.00 0.00 65 1016.5
20260902052554 79 0 0.0 0.0 0.00 0.00 0.00 68 1016.6
20260902052051 80 0 0.0 0.0 0.00 0.00 0.00 68 1016.5
20260902051603 80 0 0.0 0.0 0.00 0.00 0.00 66 1016.7
20260902051051 80 0 0.0 0.0 0.00 0.00 0.00 65 1016.8
20260902050548 80 0 0.0 0.0 0.00 0.00 0.00 65 1016.8
20260902050108 80 0 0.0 3.0 0.00 0.00 0.00 65 1016.8
20260902045555 81 0 0.0 3.0 0.00 0.00 0.00 64 1016.9
20260902045051 80 282 1.0 3.0 0.00 0.00 0.00 63 1016.8
20260902044602 80 282 1.0 3.0 0.00 0.00 0.00 63 1016.8
20260902044049 80 282 1.0 3.0 0.00 0.00 0.00 63 1016.8
20260902043549 80 282 1.0 4.0 0.00 0.00 0.00 64 1016.8
20260902043111 80 282 1.0 4.0 0.00 0.00 0.00 63 1016.8
20260902042551 80 0 0.0 2.0 0.00 0.00 0.00 65 1016.8
20260902042048 80 0 0.0 2.0 0.00 0.00 0.00 65 1016.8
20260902041601 80 0 0.0 0.0 0.00 0.00 0.00 66 1016.7
20260902041047 80 0 0.0 0.0 0.00 0.00 0.00 65 1016.6
20260902040553 81 0 0.0 0.0 0.00 0.00 0.00 63 1016.6
20260902040107 81 0 0.0 0.0 0.00 0.00 0.00 65 1016.6
20260902035550 81 0 0.0 0.0 0.00 0.00 0.00 64 1016.5
20260902035048 81 0 0.0 0.0 0.00 0.00 0.00 64 1016.4
20260902034601 82 0 0.0 0.0 0.00 0.00 0.00 62 1016.4
20260902034059 82 0 0.0 2.0 0.00 0.00 0.00 61 1016.4
20260902033551 82 0 0.0 2.0 0.00 0.00 0.00 62 1016.2
20260902033106 82 282 0.0 2.0 0.00 0.00 0.00 61 1016.2
20260902032551 82 0 0.0 3.0 0.00 0.00 0.00 61 1016.0
20260902032048 82 0 0.0 3.0 0.00 0.00 0.00 61 1015.9
20260902031555 83 282 1.0 3.0 0.00 0.00 0.00 60 1015.8
20260902031051 83 282 0.0 3.0 0.00 0.00 0.00 60 1015.7
20260902030548 83 0 0.0 3.0 0.00 0.00 0.00 60 1015.5
20260902025552 83 282 0.0 1.0 0.00 0.00 0.00 59 1015.3
20260902025049 83 0 0.0 0.0 0.00 0.00 0.00 59 1015.1
20260902024613 84 0 0.0 3.0 0.00 0.00 0.00 59 1015.1
20260902024049 84 0 0.0 3.0 0.00 0.00 0.00 58 1015.0
20260902023548 84 282 1.0 3.0 0.00 0.00 0.00 58 1015.0
20260902023059 85 282 1.0 2.0 0.00 0.00 0.00 57 1014.9
20260902022555 85 282 1.0 2.0 0.00 0.00 0.00 54 1014.8
20260902022051 85 0 0.0 1.0 0.00 0.00 0.00 54 1014.8
20260902021605 86 0 0.0 0.0 0.00 0.00 0.00 52 1014.7
20260902021052 86 0 0.0 0.0 0.00 0.00 0.00 52 1014.6
20260902020549 86 0 0.0 6.0 0.00 0.00 0.00 50 1014.6
20260902020141 87 0 0.0 6.0 0.00 0.00 0.00 50 1014.4
20260902015548 87 282 1.0 4.0 0.00 0.00 0.00 49 1014.5
20260902015048 87 282 1.0 4.0 0.00 0.00 0.00 49 1014.4
20260902014602 87 282 1.0 6.0 0.00 0.00 0.00 48 1014.3
20260902014048 88 282 2.0 6.0 0.00 0.00 0.00 47 1014.3
20260902013550 88 282 1.0 6.0 0.00 0.00 0.00 46 1014.4
20260902013124 89 275 1.0 7.0 0.00 0.00 0.00 46 1014.4
20260902012548 89 270 3.0 7.0 0.00 0.00 0.00 45 1014.4
20260902012057 90 0 1.0 8.0 0.00 0.00 0.00 44 1014.4
20260902011602 90 297 2.0 8.0 0.00 0.00 0.00 43 1014.4
20260902011052 90 0 3.0 8.0 0.00 0.00 0.00 43 1014.3
20260902010552 90 267 3.0 8.0 0.00 0.00 0.00 42 1014.4
20260902010059 91 0 2.0 9.0 0.00 0.00 0.00 42 1014.4
20260902005555 91 243 3.0 9.0 0.00 0.00 0.00 40 1014.3
20260902005052 91 302 3.0 9.0 0.00 0.00 0.00 40 1014.3
20260902004559 91 299 2.0 8.0 0.00 0.00 0.00 39 1014.3
20260902004051 91 247 3.0 9.0 0.00 0.00 0.00 38 1014.3
20260902003552 91 271 4.0 9.0 0.00 0.00 0.00 38 1014.4
20260902003104 92 301 2.0 8.0 0.00 0.00 0.00 38 1014.4
20260902002552 92 307 4.0 8.0 0.00 0.00 0.00 38 1014.5
20260902002052 92 304 2.0 7.0 0.00 0.00 0.00 37 1014.4
20260902001603 92 293 2.0 10.0 0.00 0.00 0.00 37 1014.5
20260902001052 92 266 3.0 10.0 0.00 0.00 0.00 36 1014.6
20260902000551 92 299 3.0 8.0 0.00 0.00 0.00 36 1014.6
20260902000104 92 267 3.0 9.0 0.00 0.00 0.00 37 1014.6
20260901235552 92 289 4.0 9.0 0.00 0.00 0.00 37 1014.5